• Em Portugal
  • Lista de países
  • Para 7 dias
  • Temperatura da água
  • Mapas de satélite
  • Mapa do tempo
  • Widgets de tempo
  • user-avatar
    Iniciar Sessão

    Previsão horária em Igls

    Hoje, 20 Outubro, Sábado

    Tempo Temperatura Precipitação Vento Pressão Humidade
    00:00 +9°C° 0 mm 1 m/s 688 mmHg 92%
    01:00 +9°C° 0 mm 1 m/s 688 mmHg 93%
    02:00 +9°C° 0 mm 1 m/s 688 mmHg 93%
    03:00 +9°C° 0 mm 1 m/s 688 mmHg 93%
    04:00 +9°C° 0 mm 1 m/s 688 mmHg 92%
    05:00 +8°C° 0 mm 1 m/s 689 mmHg 91%
    06:00 +8°C° 0 mm 1 m/s 689 mmHg 89%
    07:00 +8°C° 0 mm 1 m/s 689 mmHg 87%
    08:00 +11°C° 0 mm 1 m/s 690 mmHg 77%
    09:00 +13°C° 0 mm 1 m/s 690 mmHg 66%
    10:00 +16°C° 0 mm 1 m/s 691 mmHg 56%
    11:00 +16°C° 0 mm 1 m/s 691 mmHg 53%
    12:00 +17°C° 0 mm 2 m/s 691 mmHg 51%
    13:00 +18°C° 0 mm 2 m/s 691 mmHg 48%
    14:00 +17°C° 0 mm 2 m/s 691 mmHg 54%
    15:00 +16°C° 0 mm 2 m/s 691 mmHg 59%
    16:00 +16°C° 0 mm 2 m/s 690 mmHg 65%
    17:00 +14°C° 0 mm 2 m/s 690 mmHg 74%
    18:00 +12°C° 0 mm 1 m/s 690 mmHg 84%
    19:00 +10°C° 0 mm 1 m/s 690 mmHg 93%
    20:00 +10°C° 0 mm 1 m/s 690 mmHg 94%
    21:00 +10°C° 0 mm 1 m/s 690 mmHg 94%
    22:00 +9°C° 0 mm 1 m/s 690 mmHg 94%
    23:00 +9°C° 0 mm 1 m/s 690 mmHg 93%

    Amanhã, 21 Outubro, Domingo

    Tempo Temperatura Precipitação Vento Pressão Humidade
    00:00 +9°C° 0 mm 1 m/s 690 mmHg 92%
    01:00 +8°C° 0 mm 1 m/s 690 mmHg 90%
    02:00 +8°C° 0 mm 1 m/s 689 mmHg 89%
    03:00 +8°C° 0 mm 1 m/s 689 mmHg 87%
    04:00 +8°C° 0 mm 1 m/s 689 mmHg 85%
    05:00 +8°C° 0 mm 1 m/s 689 mmHg 85%
    06:00 +8°C° 0 mm 1 m/s 689 mmHg 86%
    07:00 +7°C° 0 mm 2 m/s 689 mmHg 86%
    08:00 +8°C° 0 mm 2 m/s 689 mmHg 79%
    09:00 +9°C° 0 mm 2 m/s 689 mmHg 72%
    10:00 +12°C° 0 mm 2 m/s 689 mmHg 65%
    11:00 +12°C° 0 mm 3 m/s 689 mmHg 60%
    12:00 +12°C° 0 mm 3 m/s 689 mmHg 55%
    13:00 +13°C° 0 mm 3 m/s 689 mmHg 50%
    14:00 +12°C° 0 mm 3 m/s 688 mmHg 53%
    15:00 +11°C° 0 mm 3 m/s 688 mmHg 56%
    16:00 +12°C° 0 mm 2 m/s 688 mmHg 58%
    17:00 +9°C° 0 mm 2 m/s 688 mmHg 69%
    18:00 +7°C° 0 mm 2 m/s 688 mmHg 79%
    19:00 +6°C° 0 mm 1 m/s 688 mmHg 90%
    20:00 +5°C° 0 mm 1 m/s 688 mmHg 89%
    21:00 +5°C° 0 mm 1 m/s 688 mmHg 88%
    22:00 +5°C° 0 mm 1 m/s 688 mmHg 87%
    23:00 +5°C° 0 mm 1 m/s 688 mmHg 83%

    Depois de amanhã, 22 Outubro, Segunda-feira

    Tempo Temperatura Precipitação Vento Pressão Humidade
    00:00 +4°C° 0 mm 1 m/s 688 mmHg 78%
    01:00 +4°C° 0 mm 1 m/s 688 mmHg 74%
    02:00 +4°C° 0 mm 1 m/s 688 mmHg 71%
    03:00 +4°C° 0 mm 1 m/s 688 mmHg 68%
    04:00 +4°C° 0 mm 1 m/s 687 mmHg 66%
    05:00 +4°C° 0 mm 1 m/s 688 mmHg 64%
    06:00 +4°C° 0 mm 1 m/s 688 mmHg 63%
    07:00 +4°C° 0 mm 1 m/s 688 mmHg 61%
    08:00 +7°C° 0 mm 1 m/s 688 mmHg 54%
    09:00 +9°C° 0 mm 1 m/s 689 mmHg 48%
    10:00 +12°C° 0 mm 2 m/s 689 mmHg 41%
    11:00 +12°C° 0 mm 2 m/s 689 mmHg 42%
    12:00 +13°C° 0 mm 2 m/s 689 mmHg 43%
    13:00 +13°C° 0 mm 2 m/s 688 mmHg 44%
    14:00 +13°C° 0 mm 2 m/s 688 mmHg 50%
    15:00 +12°C° 0 mm 2 m/s 688 mmHg 57%
    16:00 +10°C° 0 mm 2 m/s 688 mmHg 64%
    17:00 +9°C° 0 mm 2 m/s 689 mmHg 73%
    18:00 +7°C° 0 mm 2 m/s 689 mmHg 82%
    19:00 +6°C° 0 mm 2 m/s 689 mmHg 91%
    20:00 +6°C° 0 mm 2 m/s 690 mmHg 91%
    21:00 +6°C° 0 mm 2 m/s 690 mmHg 91%
    22:00 +6°C° 0 mm 2 m/s 691 mmHg 92%
    23:00 +6°C° 0 mm 2 m/s 691 mmHg 91%

    23 Outubro, Terça-feira

    Tempo Temperatura Precipitação Vento Pressão Humidade
    00:00 +5°C° 0 mm 2 m/s 691 mmHg 91%
    01:00 +5°C° 0 mm 2 m/s 691 mmHg 91%
    02:00 +5°C° 0 mm 2 m/s 690 mmHg 91%
    03:00 +5°C° 0 mm 2 m/s 690 mmHg 90%
    04:00 +5°C° 0 mm 2 m/s 690 mmHg 90%
    05:00 +5°C° 0 mm 2 m/s 690 mmHg 90%
    06:00 +4°C° 0 mm 2 m/s 690 mmHg 90%
    07:00 +4°C° 0 mm 2 m/s 690 mmHg 91%
    08:00 +5°C° 0 mm 2 m/s 690 mmHg 84%
    09:00 +7°C° 0 mm 2 m/s 691 mmHg 77%
    10:00 +8°C° 0 mm 2 m/s 691 mmHg 71%
    11:00 +9°C° 0 mm 2 m/s 690 mmHg 67%
    12:00 +10°C° 0 mm 2 m/s 690 mmHg 63%
    13:00 +10°C° 0 mm 2 m/s 690 mmHg 59%
    14:00 +10°C° 0 mm 2 m/s 689 mmHg 62%
    15:00 +10°C° 0 mm 2 m/s 689 mmHg 64%
    16:00 +9°C° 0 mm 2 m/s 689 mmHg 66%
    17:00 +8°C° 0 mm 2 m/s 689 mmHg 74%
    18:00 +7°C° 0 mm 2 m/s 689 mmHg 82%
    19:00 +6°C° 0 mm 2 m/s 689 mmHg 90%
    20:00 +6°C° 0.2 mm 2 m/s 689 mmHg 88%
    21:00 +6°C° 0.2 mm 2 m/s 689 mmHg 87%
    22:00 +6°C° 0.2 mm 2 m/s 689 mmHg 85%
    23:00 +6°C° 0.3 mm 2 m/s 688 mmHg 84%

    24 Outubro, Quarta-feira

    Tempo Temperatura Precipitação Vento Pressão Humidade
    00:00 +6°C° 0.3 mm 2 m/s 688 mmHg 83%
    01:00 +6°C° 0.3 mm 2 m/s 688 mmHg 82%
    02:00 +7°C° 0.8 mm 3 m/s 687 mmHg 84%
    03:00 +7°C° 0.8 mm 3 m/s 687 mmHg 86%
    04:00 +7°C° 0.8 mm 3 m/s 687 mmHg 88%
    05:00 +7°C° 1.4 mm 3 m/s 686 mmHg 90%
    06:00 +7°C° 1.4 mm 3 m/s 686 mmHg 91%
    07:00 +8°C° 1.4 mm 3 m/s 686 mmHg 92%
    08:00 +8°C° 1.7 mm 3 m/s 686 mmHg 92%
    09:00 +8°C° 1.7 mm 3 m/s 686 mmHg 92%
    10:00 +9°C° 1.7 mm 3 m/s 686 mmHg 92%
    11:00 +9°C° 1.6 mm 3 m/s 686 mmHg 92%
    12:00 +9°C° 1.6 mm 3 m/s 686 mmHg 92%
    13:00 +9°C° 1.6 mm 3 m/s 686 mmHg 92%
    14:00 +9°C° 1.7 mm 3 m/s 686 mmHg 92%
    15:00 +9°C° 1.7 mm 3 m/s 686 mmHg 93%
    16:00 +9°C° 1.7 mm 3 m/s 686 mmHg 93%
    17:00 +9°C° 1.8 mm 3 m/s 686 mmHg 94%
    18:00 +9°C° 1.8 mm 3 m/s 686 mmHg 94%
    19:00 +9°C° 1.8 mm 3 m/s 687 mmHg 95%
    20:00 +9°C° 1.3 mm 3 m/s 687 mmHg 95%
    21:00 +9°C° 1.3 mm 3 m/s 687 mmHg 96%
    22:00 +9°C° 1.3 mm 3 m/s 687 mmHg 96%
    23:00 +9°C° 0.5 mm 3 m/s 687 mmHg 96%

    25 Outubro, Quinta-feira

    Tempo Temperatura Precipitação Vento Pressão Humidade
    00:00 +9°C° 0.5 mm 3 m/s 687 mmHg 96%
    01:00 +9°C° 0.5 mm 3 m/s 687 mmHg 96%
    02:00 +8°C° 0.2 mm 3 m/s 687 mmHg 96%
    03:00 +8°C° 0.2 mm 2 m/s 687 mmHg 96%
    04:00 +8°C° 0.2 mm 2 m/s 687 mmHg 96%
    05:00 +8°C° 0.1 mm 2 m/s 687 mmHg 96%
    06:00 +8°C° 0.1 mm 2 m/s 687 mmHg 95%
    07:00 +7°C° 0.1 mm 2 m/s 687 mmHg 95%
    08:00 +9°C° 0 mm 2 m/s 687 mmHg 92%
    09:00 +10°C° 0 mm 2 m/s 688 mmHg 89%
    10:00 +12°C° 0 mm 2 m/s 688 mmHg 86%
    11:00 +13°C° 0 mm 2 m/s 687 mmHg 82%
    12:00 +14°C° 0 mm 2 m/s 687 mmHg 79%
    13:00 +14°C° 0 mm 2 m/s 687 mmHg 75%
    14:00 +14°C° 0 mm 1 m/s 687 mmHg 77%
    15:00 +14°C° 0 mm 1 m/s 686 mmHg 78%
    16:00 +13°C° 0 mm 1 m/s 686 mmHg 80%
    17:00 +12°C° 0 mm 1 m/s 686 mmHg 83%
    18:00 +10°C° 0 mm 1 m/s 686 mmHg 87%
    19:00 +8°C° 0 mm 1 m/s 685 mmHg 91%
    20:00 +8°C° 0 mm 1 m/s 685 mmHg 89%
    21:00 +8°C° 0 mm 1 m/s 685 mmHg 87%
    22:00 +8°C° 0 mm 1 m/s 685 mmHg 85%
    23:00 +7°C° 0 mm 1 m/s 685 mmHg 82%
    Mostrar mais